sat.trackr.live / text

‹ back to catalog

LEMUR-2-THERMORAPTOR

NORAD 63354 · 2025-061D

PAYLOAD ACTIVE UNKNOWN

§ Identity

Operator
Country
US
Launch date
2025-03-26
Launch site
RLLB
Launch vehicle
Mass (kg)
RCS (m²)

Purposes: earth_obs

External: N2YO · Heavens-Above · Gunter

§ Orbital elements

Epoch: 2026-05-24T21:02:07.084032Z

Period
95.12 min
Inclination
97.5685°
Eccentricity
0.0018450
Mean motion
15.13879137 rev/d
Perigee alt
511.6 km
Apogee alt
537.1 km
Semi-major
6,902.5 km
B*
2.1552e-4
RAAN
121.0768°
Arg perigee
342.0151°
Mean anomaly
18.0425°
Rev number
6,408

§ Raw data

LEMUR-2-THERMORAPTOR1 63354U 25061D   26144.87647088  .00003847  00000+0  21552-3 0  99992 63354  97.5685 121.0768 0018450 342.0151  18.0425 15.13879137 64085

JSON: /api/v1/satellites/63354 · /tle

For live sub-satellite position, see the globe view (requires WebGL).

§ Visibility from observer

Set your observer location to see the next 7 days of passes ≥ 10°. The values pass through the URL so the page stays shareable.

No JS? Fill the form by hand. The geolocation button needs JavaScript.